Location: Unspecified
(0.0000°N, 0.0000°E)
Time: 07:46:04
(UTC+00:00)

RS-15 - Visible Passes

Search period start: 16 January 2018 00:00
Search period end: 26 January 2018 00:00
Orbit: 1886 x 2158 km, 64.8° (Epoch: 14 January)

Date Brightness Start Highest point End Pass type
(mag) Time Alt. Az. Time Alt. Az. Time Alt. Az.
16 Jan 8.2 18:38:54 10° N 18:49:03 40° ENE 18:58:52 10° SE visible
16 Jan 9.1 20:51:23 10° NW 21:00:53 34° WSW 21:10:20 10° S visible
17 Jan 8.6 20:14:27 10° NW 20:24:56 50° WSW 20:35:16 10° S visible
18 Jan 8.1 19:38:00 10° NNW 19:49:00 71° WSW 19:59:48 10° SSE visible
19 Jan 10.9 05:12:08 10° SE 05:18:16 15° ESE 05:24:24 10° E visible
19 Jan 7.9 19:01:56 10° NNW 19:13:05 84° ENE 19:23:56 10° SSE visible
19 Jan 10.2 21:21:05 10° W 21:25:09 13° WSW 21:29:15 10° SW visible
20 Jan 8.0 18:26:13 10° N 18:37:08 61° ENE 18:47:44 10° SSE visible
20 Jan 9.9 20:41:31 10° WNW 20:49:02 21° WSW 20:56:35 10° SSW visible
21 Jan 9.4 20:03:43 10° NW 20:13:00 32° WSW 20:22:16 10° S visible
22 Jan 9.8 05:31:52 10° S 05:42:34 37° ESE 05:53:26 10° NE visible
22 Jan 8.9 19:26:41 10° NW 19:37:03 47° WSW 19:47:17 10° S visible
23 Jan 10.3 04:57:17 10° SSE 05:06:32 26° ESE 05:15:51 10° ENE visible
23 Jan 8.4 18:50:10 10° NNW 19:01:07 67° WSW 19:11:51 10° SSE visible
24 Jan 10.6 04:23:44 10° SSE 04:30:25 16° ESE 04:37:09 10° ENE visible
24 Jan 10.5 20:34:12 10° W 20:37:19 11° WSW 20:40:26 10° SW visible
25 Jan 10.2 19:54:00 10° WNW 20:01:10 20° WSW 20:08:22 10° SSW visible
